This is the latest recevied weather packets stored in our database for station/object KE5WTH-14. If no packets are shown the sender has not sent any weather packets the latest 10 day(s).
| Time | Temp. | Humidity | Pressure | Rain* | Wind** | Luminosity | Snow |
|---|---|---|---|---|---|---|---|
| 1778251928 | 18.33° C | 82% | 1014.3 hPa | 0 mm | - | 357 W/m² | - |
| 1778251866 | 18.33° C | 82% | 1014.4 hPa | 0 mm | - | 353 W/m² | - |
| 1778251805 | 18.33° C | 82% | 1014.3 hPa | 0 mm | - | 329 W/m² | - |
| 1778251743 | 18.33° C | 82% | 1014.4 hPa | 0 mm | - | 292 W/m² | - |
| 1778251687 | 18.33° C | 82% | 1014.4 hPa | 0 mm | - | 241 W/m² | - |
| 1778251624 | 18.33° C | 82% | 1014.4 hPa | 0 mm | - | 195 W/m² | - |
| 1778251563 | 18.33° C | 82% | 1014.4 hPa | 0 mm | - | 164 W/m² | - |
| 1778251503 | 18.33° C | 82% | 1014.4 hPa | 0 mm | - | 97 W/m² | - |
| 1778251442 | 18.33° C | 82% | 1014.3 hPa | 0 mm | - | 97 W/m² | - |
| 1778251386 | 18.33° C | 82% | 1014.2 hPa | 0 mm | - | 97 W/m² | - |
| 1778251324 | 18.33° C | 82% | 1014.4 hPa | 0 mm | - | 93 W/m² | - |
| 1778251262 | 18.33° C | 81% | 1014.5 hPa | 0 mm | - | 97 W/m² | - |
| 1778251204 | 18.33° C | 82% | 1014.5 hPa | 0 mm | - | 135 W/m² | - |
| 1778251142 | 18.33° C | 82% | 1014.5 hPa | 0 mm | - | 165 W/m² | - |
| 1778251087 | 18.33° C | 82% | 1014.5 hPa | 0 mm | - | 192 W/m² | - |
| 1778251023 | 18.33° C | 82% | 1014.6 hPa | 0 mm | - | 216 W/m² | - |
| 1778250962 | 18.33° C | 82% | 1014.4 hPa | 0 mm | - | 244 W/m² | - |
| 1778250899 | 18.33° C | 82% | 1014.4 hPa | 0 mm | - | 260 W/m² | - |
| 1778250838 | 18.89° C | 82% | 1014.5 hPa | 0 mm | - | 267 W/m² | - |
| 1778250777 | 18.89° C | 83% | 1014.5 hPa | 0 mm | - | 262 W/m² | - |
| 1778250701 | 18.89° C | 83% | 1014.4 hPa | 0 mm | - | 253 W/m² | - |
| 1778250668 | 18.89° C | 84% | 1014.5 hPa | 0 mm | - | 236 W/m² | - |
| 1778250638 | 18.89° C | 84% | 1014.4 hPa | 0 mm | - | 255 W/m² | - |
| 1778250606 | 18.33° C | 85% | 1014.4 hPa | 0 mm | - | 294 W/m² | - |
| 1778250571 | 18.33° C | 85% | 1014.5 hPa | 0 mm | - | 570 W/m² | - |
* Rain latest hour (hover to see other rain measurements)
** Current wind speed in m/s (hover to see current wind gust speed)